User: anonymous   Login
Location: Unspecified
(43.4680°N, 87.1740°E)
Time: 09:05:22
(UTC+00:00)
Language:

Cosmos 2297 - Orbit

View from above orbital plane
View from above orbital plane
View from above satellite
View from above satellite

Ground track
Ground track

The orbit data is extracted from the following two-line orbital elements,

1 23404U 94077A   21166.91110827 -.00000022  00000-0  13403-4 0  9995
2 23404  71.0107 117.1928 0013804  93.7271 266.5429 14.13536929370305
Epoch (UTC): 15 June 2021 21:51:59
Eccentricity: 0.0013804
inclination: 71.0107°
perigee height: 837 km
apogee height: 857 km
right ascension of ascending node: 117.1928°
argument of perigee: 93.7271°
revolutions per day: 14.13536929
mean anomaly at epoch: 266.5429°
orbit number at epoch: 37030

The dashed part of the orbit path shows where the satellite is in the earth's shadow,  

DLR